Regional Weather Roundup
Issued by NWS

Home | Current Version | Previous Version | Text Only | Print | Product List | Glossary Off
Versions: 1 2 3 4 5 6 7 8 9 10 11 12 13 14 15 16 17 18 19 20 21 22 23 24 25 26 27 28 29 30 31 32 33 34 35 36 37 38 39 40 41 42 43 44 45 46 47 48 49 50

000
ASUS43 KLMK 140810
RWRKY
KENTUCKY REGIONAL WEATHER ROUNDUP
NATIONAL WEATHER SERVICE LOUISVILLE KY
300 AM EST SUN FEB 14 2016

NOTE "FAIR" INDICATES FEW OR NO CLOUDS BELOW 12,000 FEET
WITH NO SIGNIFICANT WEATHER AND/OR OBSTRUCTIONS TO VISIBILITY.

KYZ001>023-026-027-061>063-070>075-140900-
WESTERN AND SOUTH CENTRAL KENTUCKY

CITY           SKY/WX    TMP DP  RH WIND       PRES   REMARKS
PADUCAH        CLOUDY    25   9  50 E10       30.36F WCI  15
HENDERSON      CLOUDY    21   7  53 E10       30.41F WCI  10
OWENSBORO      CLOUDY    23   4  44 E12       30.42F WCI  12
HOPKINSVILLE   CLOUDY    25   6  45 E10       30.36F WCI  15
BOWLING GREEN  CLOUDY    25   7  46 E8        30.41F WCI  16
GLASGOW        CLOUDY    22   8  53 E7        30.41F WCI  14
$$

KYZ024-025-028>034-038-045-046-053-140900-
NORTH CENTRAL KENTUCKY

CITY           SKY/WX    TMP DP  RH WIND       PRES   REMARKS
LOUISVILLE/SDF CLOUDY    20   3  48 E7        30.46F WCI  11
LOUISVILLE/LOU MOCLDY    19   4  51 E3        30.47S
FORT KNOX      CLOUDY    19   4  52 E5        30.41F WCI  12
$$

KYZ035>037-039>044-047>052-055>060-089>105-140900-
NORTHEAST KENTUCKY

CITY           SKY/WX    TMP DP  RH WIND       PRES   REMARKS
LEXINGTON      CLOUDY    17   3  54 E7        30.43S WCI   8
COVINGTON      CLOUDY    14   6  70 E6        30.44F WCI   5
FRANKFORT      MOCLDY    17   3  54 E6        30.44S WCI   9
$$

KYZ054-064>069-076>088-106>120-140900-
SOUTHEAST KENTUCKY

CITY           SKY/WX    TMP DP  RH WIND       PRES   REMARKS
JACKSON        CLOUDY    13   0  56 NE5       30.39F WCI   5
LONDON         CLOUDY    16   4  59 E3        30.40F
SOMERSET       CLOUDY    18   5  57 E5        30.43F WCI  11
MIDDLESBORO    CLOUDY    15  10  80 CALM      30.41S
MONTICELLO     CLOUDY    19   7  59 SE5       30.43S WCI  12
$$




USA.gov is the U.S. government's official web portal to all federal, state and local government web resources and services.